Погода Мыс Терпения

Погода Мыс Терпения : погода сейчас, прогноз погоды и архив. Всё, что Вы хотите узнать о погоде Мыс Терпения!

Поиск расширенной информации на нашем сайте:

Другие новости

Новости СМИ2

Главная страница сайта

Новости сайта

02.10.2013

Напоминаем, что на нашем новом сайте вы можете получить высокодетализированные прогнозы погоды по пунктам России, СНГ и мира (включающие важные для авиации метеовеличины, такие как направление и скорость ветра, видимость, явления погоды, количество и форма облачности, нижняя и верхняя граница облачности), а также ознакомиться с разнообразными материалами по авиационной метеорологии и подборкой полезных ссылок на эту тему.

Сайт Метеоцентр.Азия посвящён разработке технологий оптимизации авиаметеорологического обслуживания, включая проектирование и перспективное создание нескольких автоматизированных авиаметеорологических систем:
- система выпуска высокодетальных прогностических карт явлений погоды для нижнего воздушного пространства по России и ближнему зарубежью;
- система верификации прогнозов TAF (выпускаемых синоптиками официальных АМСГ РФ и ближнего зарубежья) и AUTOTAF (выпускаемых сайтом Метеоцентр.Азия) - выявление ошибок, онлайн-сопоставление с фактической погодой METAR, автоматическое внесение коррективов в прогнозы при резком отклонении фактической погоды от прогноза, подсчёт оправдываемости прогнозов по элементам и в целом;
- система обработки, анализа и отображения авиаметеорологической информации для применения провайдерами метеорологической информации.

Рекомендуем: Станозолол Где купить Станозолол заказать Stanos пропионат пкт побочные лучший как принимать Купить

Погода Мыс Терпения - сегодня

Время (UTC), дата Ветер
(°,м/с) 
Видим.   Явления Облачность Т
(°С)
Тd
(°С)
f(%) Тe
(°С)
Pmin
(гПа)
dP
(гПа)
Po
(мм)
O2
(г/м3)
Тmin Tmax R s Состояние
почвы
21 23.05.17 070 (В) 7-10{11}  20000 м  {ливн. осадки}  10/10 600 м кучево-дожд. 
[Cb cap]
+2.3 +2 98 -1  1007.9  -1.1  755  301  +1.6    0.9    влажная 
00 24.05.17 100 (В) 5-9{14}  20000 м  {ливн. осадки}  10/10 600 м кучево-дожд. 
[Cb cap]
+3 +2.7 98 +1  1008.1  0.2  755  301           
03 24.05.17 050 (СВ) 9-10{11}  2000 м  дымка  10/10 300 м 
[St]
+2.3 +1.7 96 -2  1008.3  -0.1  756  302           
06 24.05.17 060 (СВ) 9-11{12}  0500 м  туман  ?/?  
+2.1 +1.6 96 -2  1008.5  0.2  756  302           
09 24.05.17 060 (СВ) 7-10{12}  2000 м  дымка{туман}  10/10 300 м 
[St]
+1.8 +1.5 98 -2  1010.2  1.7  757  303    +3.4       
12 24.05.17 030 (СВ) 7-8{10}  0500 м  туман  ?/?  
+1.3 +1.1 99 -2  1011.9  1.7  758  304           
15 24.05.17 020 (С) 8-9{09}  0500 м  туман  ?/?  
+1.2 +0.9 98 -3  1012.6  0.6  759  304           
18 24.05.17 010 (С) 7-8{09}  0500 м  туман  ?/?  
+0.9 +0.7 99 -3  1013.3  0.7  759  305           
21 24.05.17 030 (СВ) 7-9{10}  0500 м  туман  ?/?  
+1 +0.8 99 -3  1014.5  1.2  760  305  +0.9        влажная 
00 25.05.17 030 (СВ) 7-8{09}  0500 м  туман  ?/?  
+1.4 +1.2 99 -2  1014.9  0.4  761  305           
03 25.05.17 020 (С) 6-7{08}  0500 м  туман  ?/?  
+1.6 +1.4 99 -2  1015  0.1  761  304           
06 25.05.17 010 (С) 4-5{08}  0500 м  туман  ?/?  
+1.3 +1.1 99 -1  1014.9  -0.1  761  305           
09 25.05.17 020 (С) 5-5{07}  0500 м  туман  ?/?  
+1.2 +1 99 -2  1015.1  0.2  761  305    +1.7       
12 25.05.17 360 (С) 4-4{06}  0500 м  туман  ?/?  
+1.1 +0.9 99 -1  1015.6  0.4  761  305           
15 25.05.17 340 (С) 4-4{05}  0200 м  туман  ?/?  
+0.9 +0.8 99 -1  1015.3  -0.3  761  305           
18 25.05.17 360 (С) 2-3{04}  0500 м  туман  ?/?  
+1 +0.8 99 1014.5  -0.8  760  305           
21 25.05.17 тихо () {04}  20000 м  в посл. час туман  10/10 300 м 
[St]
+2.1 +2 99 +2  1014.2  -0.3  760  304  +0.9    0.3    влажная 
00 26.05.17 240 (ЮЗ) 3-4{04}  20000 м  {туман}  10/10 600 м 
[Sc]
+3.6 +3.3 98 +2  1013.7  -0.5  760  302           
03 26.05.17 240 (ЮЗ) 4-6{06}  20000 м    10/10 600 м 
[Sc]
+5.5 +3.6 88 +4  1013.5  0.1  760  299           
06 26.05.17 220 (ЮЗ) 3-5{06}  20000 м    9/8 600 м 
[]
+5.9 +2.7 80 +5  1012.5  -1.1  759  299           
09 26.05.17 200 (Ю) 6-7{08}  20000 м    1/1 600 м 
[Sc]
+3.7 +1.8 87 +1  1012.4  759  301    +6.2       
12 26.05.17 210 (ЮЗ) 6-8{09}  0500 м  туман  ?/?  
+1.7 +1.4 98 -1  1013  0.6  759  304           
21 26.05.17 200 (Ю) 7-8{09}  0500 м  туман  ?/?  
+1.5 +1.3 99 -2  1013.2  0.6  759  304  +0.6        влажная 
21 27.05.17 160 (Ю) 3-5{07}  0500 м  туман  ?/?  
+1.6 +1.4 99 1010.6  -0.2  757  303  +0.6    0.3    влажная 
21 28.05.17 180 (Ю) 5-6{06}  0500 м  туман  ?/?  
+4.3 +4.2 99 +2  1002.7  0.1  751  297  +2.6        влажная 
Время (UTC), дата Ветер
(°,м/с) 
Видим.   Явления Облачность Т
(°С)
Тd
(°С)
f(%) Тe
(°С)
Pmin
(гПа)
dP
(гПа)
Po
(мм)
O2
(г/м3)
Тmin Tmax R s Состояние
почвы

Для получения пояснительной информации подведите курсор к названию столбца.

ПОГОДА Мыс Терпения - архив

Всё, что Вы хотите узнать о погоде Мыс Терпения - удобно и подробно!

Выберите нужную дату (начиная с 1 января 2015* года) и нажмите кнопку "Найти".
Будут отображены архивные сводки погоды по пункту Мыс Терпения, начиная с указанной даты.


Отображать данные в формате CSV (для использования в таблицах Excel)


Внимание! Наш архив погоды предназначен исключительно для личного некоммерческого использования в познавательных целях. Если Вам необходимы официальные справки о состоянии погоды (для производственных, юридических, коммерческих и т.п. целей), обращайтесь в органы Росгидромета.

*Примечание: данная дата относится к архиву по метеостанциям СССР (Россия, СНГ, Балтия).
Архив по метеостанциям Зарубежной Европы и Азии (кроме Китая) хранится 10 дней, по другим регионам земного шара (Китай, Африка, Америка, Австралия, Океания) - 1 день.

Мыс Терпения - район местоположения метеостанции


Название, широта, долгота, высота метеостанции:
Мыс Терпения 48.6°ш. 144.7°д. 33 м над ур. моря [Российская Федерация]

Дополнительная информация

В oтличие oт бoльшинства пoгoдных сайтoв мы публикуем пoдрoбную метеoинфoрмацию в детальнoм прoфессиoнальнoм фoрмате.

Характеристики температуры и влажнoсти вoздуха измеряются на высoте 2 м в тени вдали oт зданий и деревьев.
Скoрoсть ветра измеряется на высoте 10 м (на урoвне рoста челoвека скoрoсть ветра ниже в 1.5-2 раза). Если метеoстанция нахoдится в гoрoде или в лесу, тo скoрoсть ветра занижена на 2-4 м/с пo сравнению с oткрытым местoм. Скoрoсть ветра над акватoриями крупных рек и oзёр, а также на вершинах хoлмoв на 2-5 м/с выше, чем в oбычных услoвиях.
Атмoсфернoе давление в разных тoчках местнoсти мoжет значительнo oтличаться oт давления на метеoстанции, в зависимoсти oт услoвий рельефа (при пoдъёме на 10 м давление пoнижается примернo на 1 мм рт.ст.).